| time (UTC) | temp F | wind direction | speed knots | gust knots | rain 1hr in | rain 24hr in | rain mn in | humidity % | barometer mb |
| 20260507111134 | 49 | 358 | 0.0 | 0.9 | 0.00 | 0.15 | 0.15 | 94 | 1005.6 |
| 20260507110630 | 49 | 359 | 0.0 | 0.0 | 0.00 | 0.15 | 0.15 | 94 | 1005.3 |
| 20260507110127 | 49 | 338 | 1.7 | 1.7 | 0.00 | 0.15 | 0.15 | 94 | 1005.7 |
| 20260507105624 | 49 | 358 | 0.0 | 0.0 | 0.00 | 0.15 | 0.15 | 94 | 1005.5 |
| 20260507105120 | 49 | 358 | 0.0 | 0.0 | 0.00 | 0.15 | 0.15 | 94 | 1005.9 |
| 20260507104617 | 49 | 0 | 0.0 | 0.0 | 0.00 | 0.15 | 0.15 | 94 | 1005.8 |
| 20260507104114 | 49 | 3 | 0.0 | 0.0 | 0.00 | 0.15 | 0.15 | 94 | 1005.9 |
| 20260507103610 | 49 | 359 | 0.9 | 0.9 | 0.00 | 0.15 | 0.15 | 94 | 1005.9 |
| 20260507103107 | 49 | 8 | 0.0 | 0.0 | 0.00 | 0.15 | 0.15 | 94 | 1005.2 |
| 20260507102603 | 49 | 8 | 0.9 | 0.9 | 0.00 | 0.15 | 0.15 | 94 | 1005.3 |
| 20260507102059 | 49 | 10 | 0.0 | 0.0 | 0.05 | 0.15 | 0.15 | 94 | 1005.5 |
| 20260507101555 | 49 | 17 | 0.0 | 0.0 | 0.05 | 0.15 | 0.15 | 94 | 1005.7 |
| 20260507101051 | 49 | 0 | 0.0 | 0.0 | 0.00 | 0.14 | 0.14 | 94 | 1005.6 |
| 20260507100549 | 49 | 1 | 0.0 | 0.0 | 0.07 | 0.14 | 0.14 | 94 | 1005.3 |
| 20260507100047 | 49 | 4 | 0.0 | 0.0 | 0.12 | 0.14 | 0.14 | 94 | 1005.1 |
| 20260507095544 | 49 | 284 | 1.7 | 2.6 | 0.19 | 0.14 | 0.14 | 93 | 1005.1 |
| 20260507095041 | 49 | 7 | 0.9 | 0.9 | 0.19 | 0.13 | 0.13 | 94 | 1005.2 |
| 20260507094537 | 50 | 341 | 0.9 | 0.9 | 0.12 | 0.11 | 0.11 | 94 | 1005.3 |
| 20260507094034 | 50 | 78 | 0.0 | 0.9 | 0.05 | 0.10 | 0.10 | 93 | 1005.1 |
| 20260507093532 | 50 | 336 | 0.9 | 0.9 | 0.00 | 0.09 | 0.09 | 93 | 1005.1 |
| 20260507093030 | 50 | 43 | 0.9 | 0.9 | 0.07 | 0.09 | 0.09 | 93 | 1004.9 |
| 20260507092526 | 50 | 345 | 0.9 | 1.7 | 0.19 | 0.09 | 0.09 | 93 | 1005.1 |
| 20260507092023 | 51 | 303 | 0.9 | 1.7 | 0.17 | 0.08 | 0.08 | 93 | 1005.0 |
| 20260507091520 | 51 | 12 | 0.9 | 0.9 | 0.12 | 0.06 | 0.06 | 93 | 1005.2 |
| 20260507091016 | 51 | 323 | 1.7 | 1.7 | 0.07 | 0.05 | 0.05 | 92 | 1005.2 |
| 20260507090512 | 51 | 349 | 0.0 | 0.9 | 0.12 | 0.05 | 0.05 | 92 | 1005.4 |
| 20260507090009 | 51 | 233 | 0.9 | 1.7 | 0.05 | 0.04 | 0.04 | 93 | 1005.2 |
| 20260507085506 | 51 | 208 | 1.7 | 2.6 | 0.00 | 0.03 | 0.03 | 93 | 1005.2 |
| 20260507085002 | 52 | 355 | 0.9 | 0.9 | 0.00 | 0.03 | 0.03 | 93 | 1005.5 |
| 20260507084459 | 52 | 305 | 3.5 | 3.5 | 0.07 | 0.03 | 0.03 | 92 | 1005.1 |
| 20260507083956 | 52 | 0 | 0.9 | 0.9 | 0.07 | 0.03 | 0.03 | 92 | 1004.9 |
| 20260507083452 | 52 | 3 | 0.0 | 0.9 | 0.00 | 0.02 | 0.02 | 91 | 1004.9 |
| 20260507082949 | 52 | 10 | 0.0 | 0.9 | 0.05 | 0.02 | 0.02 | 91 | 1004.9 |
| 20260507082445 | 52 | 0 | 0.9 | 0.9 | 0.05 | 0.02 | 0.02 | 90 | 1004.8 |
| 20260507081941 | 53 | 39 | 0.0 | 0.9 | 0.00 | 0.01 | 0.01 | 90 | 1004.6 |
| 20260507081438 | 53 | 7 | 0.0 | 0.0 | 0.00 | 0.01 | 0.01 | 89 | 1005.0 |
| 20260507080935 | 53 | 200 | 2.6 | 2.6 | 0.00 | 0.01 | 0.01 | 88 | 1005.2 |
| 20260507080425 | 53 | 343 | 0.9 | 0.9 | 0.00 | 0.01 | 0.01 | 88 | 1004.9 |
| 20260507075920 | 53 | 181 | 1.7 | 1.7 | 0.00 | 0.01 | 0.01 | 87 | 1004.7 |
| 20260507075416 | 53 | 4 | 0.9 | 0.9 | 0.00 | 0.01 | 0.01 | 87 | 1004.6 |
| 20260507074908 | 54 | 254 | 2.6 | 5.2 | 0.00 | 0.01 | 0.01 | 86 | 1004.8 |
| 20260507074405 | 54 | 343 | 0.9 | 0.9 | 0.00 | 0.01 | 0.01 | 84 | 1004.7 |
| 20260507073903 | 54 | 229 | 0.9 | 1.7 | 0.00 | 0.01 | 0.01 | 84 | 1004.6 |
| 20260507073359 | 54 | 358 | 0.9 | 0.9 | 0.00 | 0.01 | 0.01 | 84 | 1004.2 |
| 20260507072856 | 54 | 293 | 2.6 | 3.5 | 0.00 | 0.01 | 0.01 | 84 | 1004.2 |
| 20260507072353 | 54 | 6 | 0.0 | 0.9 | 0.00 | 0.01 | 0.01 | 85 | 1004.2 |
| 20260507071851 | 54 | 279 | 0.9 | 0.9 | 0.00 | 0.01 | 0.01 | 86 | 1004.1 |
| 20260507071348 | 54 | 283 | 3.5 | 5.2 | 0.00 | 0.01 | 0.01 | 86 | 1004.2 |
| 20260507070843 | 54 | 306 | 1.7 | 1.7 | 0.00 | 0.01 | 0.01 | 86 | 1004.3 |
| 20260507070341 | 54 | 1 | 0.9 | 1.7 | 0.00 | 0.01 | 0.01 | 86 | 1004.0 |
| 20260507065838 | 54 | 333 | 0.9 | 0.9 | 0.00 | 0.01 | 0.01 | 86 | 1004.5 |
| 20260507065335 | 55 | 219 | 1.7 | 1.7 | 0.00 | 0.01 | 0.01 | 86 | 1004.1 |
| 20260507064832 | 55 | 329 | 1.7 | 2.6 | 0.00 | 0.01 | 0.01 | 85 | 1004.2 |
| 20260507064330 | 55 | 294 | 1.7 | 2.6 | 0.00 | 0.01 | 0.01 | 84 | 1004.1 |
| 20260507063828 | 55 | 297 | 1.7 | 1.7 | 0.00 | 0.01 | 0.01 | 84 | 1004.1 |
| 20260507063324 | 55 | 309 | 1.7 | 2.6 | 0.00 | 0.01 | 0.01 | 84 | 1004.2 |
| 20260507062821 | 55 | 309 | 2.6 | 3.5 | 0.00 | 0.01 | 0.01 | 86 | 1004.2 |
| 20260507062318 | 56 | 181 | 0.9 | 1.7 | 0.00 | 0.01 | 0.01 | 89 | 1003.9 |
| 20260507061816 | 56 | 18 | 0.0 | 0.0 | 0.00 | 0.01 | 0.01 | 89 | 1003.8 |
| 20260507061314 | 56 | 49 | 0.9 | 0.9 | 0.00 | 0.01 | 0.01 | 90 | 1004.0 |
| 20260507060812 | 56 | 329 | 1.7 | 2.6 | 0.00 | 0.01 | 0.01 | 91 | 1004.2 |
| 20260507060308 | 56 | 358 | 0.0 | 0.9 | 0.00 | 0.01 | 0.01 | 91 | 1004.0 |
| 20260507055805 | 56 | 307 | 0.9 | 1.7 | 0.00 | 0.01 | 0.01 | 91 | 1004.1 |
| 20260507055300 | 57 | 340 | 0.9 | 1.7 | 0.00 | 0.01 | 0.01 | 91 | 1004.3 |
| 20260507054757 | 57 | 0 | 0.9 | 0.9 | 0.00 | 0.01 | 0.01 | 91 | 1004.6 |
| 20260507054253 | 57 | 208 | 2.6 | 3.5 | 0.00 | 0.01 | 0.01 | 91 | 1004.5 |
| 20260507053751 | 57 | 315 | 0.9 | 0.9 | 0.00 | 0.01 | 0.01 | 91 | 1004.5 |
| 20260507053248 | 57 | 333 | 0.9 | 1.7 | 0.00 | 0.01 | 0.01 | 91 | 1004.3 |
| 20260507052747 | 57 | 350 | 0.9 | 0.9 | 0.00 | 0.01 | 0.01 | 91 | 1004.1 |
| 20260507052243 | 57 | 348 | 0.9 | 1.7 | 0.00 | 0.01 | 0.01 | 90 | 1004.1 |
| 20260507051741 | 57 | 204 | 1.7 | 5.2 | 0.00 | 0.01 | 0.01 | 91 | 1004.2 |
| 20260507051238 | 57 | 18 | 1.7 | 1.7 | 0.00 | 0.01 | 0.01 | 92 | 1004.1 |
| 20260507050734 | 57 | 333 | 0.9 | 0.9 | 0.00 | 0.01 | 0.01 | 93 | 1004.2 |
| 20260507050232 | 58 | 0 | 0.9 | 0.9 | 0.00 | 0.01 | 0.01 | 94 | 1004.2 |
| 20260507045728 | 58 | 344 | 2.6 | 5.2 | 0.00 | 0.01 | 0.01 | 95 | 1004.1 |
| 20260507045224 | 59 | 243 | 3.5 | 5.2 | 0.00 | 0.01 | 0.01 | 96 | 1003.9 |
| 20260507044722 | 59 | 345 | 0.9 | 1.7 | 0.00 | 0.01 | 0.01 | 97 | 1003.9 |
| 20260507044218 | 59 | 1 | 0.9 | 1.7 | 0.00 | 0.01 | 0.01 | 97 | 1003.6 |
| 20260507043714 | 59 | 344 | 3.5 | 5.2 | 0.00 | 0.01 | 0.01 | 97 | 1003.9 |
| 20260507043211 | 59 | 337 | 0.9 | 0.9 | 0.00 | 0.01 | 0.01 | 97 | 1003.9 |
| 20260507042708 | 59 | 2 | 0.9 | 0.9 | 0.00 | 0.01 | 0.01 | 97 | 1003.8 |
| 20260507042203 | 59 | 354 | 0.9 | 0.9 | 0.07 | 0.01 | 0.01 | 97 | 1004.0 |
| 20260507041701 | 59 | 349 | 0.9 | 0.9 | 0.07 | 0.01 | 0.01 | 97 | 1004.0 |
| 20260507041156 | 59 | 355 | 0.9 | 0.9 | 0.00 | 0.00 | 0.00 | 97 | 1004.2 |
| 20260507040654 | 59 | 330 | 0.9 | 0.9 | 0.00 | 0.00 | 0.00 | 97 | 1004.1 |
| 20260507040150 | 59 | 329 | 0.9 | 0.9 | 0.00 | 0.00 | 0.00 | 96 | 1004.3 |
| 20260507035646 | 59 | 334 | 1.7 | 2.6 | 0.00 | 0.04 | 0.04 | 96 | 1004.1 |
| 20260507035142 | 59 | 239 | 1.7 | 1.7 | 0.00 | 0.04 | 0.04 | 96 | 1004.1 |
| 20260507034639 | 59 | 8 | 0.9 | 0.9 | 0.00 | 0.04 | 0.04 | 96 | 1003.9 |
| 20260507034137 | 59 | 7 | 0.9 | 0.9 | 0.00 | 0.04 | 0.04 | 95 | 1004.1 |
| 20260507033635 | 59 | 5 | 0.0 | 0.9 | 0.00 | 0.04 | 0.04 | 95 | 1003.8 |
| 20260507033132 | 59 | 331 | 3.5 | 3.5 | 0.00 | 0.04 | 0.04 | 95 | 1003.9 |
| 20260507032629 | 59 | 270 | 1.7 | 2.6 | 0.00 | 0.04 | 0.04 | 95 | 1003.7 |
| 20260507032124 | 59 | 211 | 1.7 | 2.6 | 0.00 | 0.04 | 0.04 | 95 | 1003.7 |
| 20260507031621 | 59 | 321 | 2.6 | 5.2 | 0.00 | 0.04 | 0.04 | 95 | 1003.6 |
| 20260507031113 | 59 | 9 | 0.9 | 0.9 | 0.00 | 0.04 | 0.04 | 95 | 1003.6 |
| 20260507030609 | 59 | 336 | 2.6 | 3.5 | 0.00 | 0.04 | 0.04 | 95 | 1003.4 |
| 20260507030107 | 59 | 324 | 1.7 | 2.6 | 0.00 | 0.04 | 0.04 | 95 | 1003.4 |
| 20260507025604 | 59 | 25 | 0.0 | 0.0 | 0.00 | 0.04 | 0.04 | 96 | 1003.3 |
| 20260507025100 | 59 | 345 | 0.9 | 0.9 | 0.00 | 0.04 | 0.04 | 96 | 1003.6 |
| 20260507024558 | 58 | 313 | 0.9 | 1.7 | 0.00 | 0.04 | 0.04 | 96 | 1003.7 |
| 20260507024050 | 58 | 112 | 0.9 | 1.7 | 0.00 | 0.04 | 0.04 | 96 | 1003.7 |
| 20260507023545 | 58 | 15 | 0.0 | 0.9 | 0.00 | 0.04 | 0.04 | 96 | 1003.6 |
| 20260507023043 | 58 | 18 | 0.9 | 0.9 | 0.00 | 0.04 | 0.04 | 96 | 1003.7 |
| 20260507022540 | 58 | 16 | 0.0 | 0.9 | 0.00 | 0.04 | 0.04 | 96 | 1003.7 |
| 20260507022035 | 58 | 2 | 1.7 | 1.7 | 0.00 | 0.04 | 0.04 | 96 | 1003.8 |
| 20260507021531 | 58 | 38 | 1.7 | 1.7 | 0.00 | 0.04 | 0.04 | 96 | 1004.0 |
| 20260507021028 | 58 | 302 | 0.9 | 2.6 | 0.00 | 0.04 | 0.04 | 96 | 1003.7 |
| 20260507020526 | 58 | 244 | 0.9 | 1.7 | 0.00 | 0.04 | 0.04 | 96 | 1003.6 |
| 20260507020022 | 58 | 27 | 0.0 | 0.9 | 0.00 | 0.04 | 0.04 | 95 | 1003.6 |
| 20260507015521 | 58 | 32 | 0.9 | 0.9 | 0.00 | 0.04 | 0.04 | 96 | 1003.8 |
| 20260507015018 | 58 | 321 | 0.9 | 1.7 | 0.00 | 0.04 | 0.04 | 96 | 1004.1 |
| 20260507014514 | 58 | 23 | 1.7 | 2.6 | 0.00 | 0.04 | 0.04 | 96 | 1003.8 |
| 20260507014010 | 58 | 61 | 0.9 | 1.7 | 0.00 | 0.04 | 0.04 | 96 | 1003.8 |
| 20260507013507 | 58 | 14 | 0.9 | 0.9 | 0.00 | 0.04 | 0.04 | 95 | 1003.8 |
| 20260507013004 | 58 | 25 | 0.0 | 0.9 | 0.00 | 0.04 | 0.04 | 96 | 1004.0 |
| 20260507012501 | 58 | 57 | 0.9 | 0.9 | 0.00 | 0.04 | 0.04 | 95 | 1004.1 |
| 20260507011957 | 57 | 349 | 0.9 | 0.9 | 0.00 | 0.04 | 0.04 | 96 | 1004.0 |
| 20260507011455 | 57 | 329 | 2.6 | 2.6 | 0.00 | 0.04 | 0.04 | 95 | 1004.1 |
| 20260507010950 | 57 | 73 | 0.9 | 0.9 | 0.00 | 0.04 | 0.04 | 96 | 1004.1 |
| 20260507010445 | 57 | 57 | 0.9 | 0.9 | 0.00 | 0.04 | 0.04 | 96 | 1004.1 |
| 20260507005942 | 57 | 24 | 0.0 | 0.0 | 0.00 | 0.04 | 0.04 | 96 | 1004.2 |
| 20260507005439 | 57 | 252 | 0.9 | 1.7 | 0.00 | 0.04 | 0.04 | 96 | 1004.0 |
| 20260507004936 | 57 | 298 | 0.9 | 1.7 | 0.00 | 0.04 | 0.04 | 96 | 1004.1 |
| 20260507004432 | 57 | 29 | 1.7 | 1.7 | 0.00 | 0.04 | 0.04 | 96 | 1004.1 |
| 20260507003930 | 57 | 40 | 0.9 | 1.7 | 0.00 | 0.04 | 0.04 | 96 | 1004.3 |
| 20260507003425 | 57 | 249 | 0.9 | 1.7 | 0.00 | 0.04 | 0.04 | 96 | 1004.2 |
| 20260507002920 | 57 | 142 | 2.6 | 3.5 | 0.00 | 0.04 | 0.04 | 96 | 1004.0 |
| 20260507002417 | 57 | 197 | 2.6 | 2.6 | 0.00 | 0.04 | 0.04 | 96 | 1004.2 |
| 20260507001914 | 57 | 237 | 2.6 | 3.5 | 0.00 | 0.04 | 0.04 | 96 | 1004.1 |
| 20260507001411 | 57 | 309 | 1.7 | 2.6 | 0.00 | 0.04 | 0.04 | 96 | 1003.8 |
| 20260507000908 | 57 | 114 | 1.7 | 2.6 | 0.07 | 0.04 | 0.04 | 96 | 1003.9 |
| 20260507000405 | 57 | 193 | 3.5 | 3.5 | 0.07 | 0.04 | 0.04 | 96 | 1003.8 |
| 20260506235859 | 57 | 172 | 3.5 | 3.5 | 0.00 | 0.03 | 0.03 | 96 | 1004.0 |
| 20260506235357 | 56 | 200 | 2.6 | 2.6 | 0.00 | 0.03 | 0.03 | 96 | 1004.1 |
| 20260506234852 | 56 | 142 | 1.7 | 5.2 | 0.05 | 0.03 | 0.03 | 96 | 1004.0 |
| 20260506234350 | 56 | 130 | 1.7 | 1.7 | 0.05 | 0.03 | 0.03 | 96 | 1004.0 |
| 20260506233848 | 56 | 53 | 1.7 | 1.7 | 0.00 | 0.02 | 0.02 | 96 | 1004.0 |
| 20260506233343 | 56 | 174 | 2.6 | 3.5 | 0.00 | 0.02 | 0.02 | 96 | 1003.9 |
| 20260506232841 | 56 | 7 | 0.9 | 1.7 | 0.00 | 0.02 | 0.02 | 96 | 1003.9 |
| 20260506232337 | 56 | 145 | 3.5 | 3.5 | 0.00 | 0.02 | 0.02 | 96 | 1003.9 |
| 20260506231833 | 56 | 57 | 1.7 | 2.6 | 0.00 | 0.02 | 0.02 | 96 | 1004.0 |
| 20260506231331 | 57 | 135 | 4.3 | 6.1 | 0.00 | 0.02 | 0.02 | 95 | 1004.1 |
| 20260506230828 | 57 | 204 | 3.5 | 7.0 | 0.00 | 0.02 | 0.02 | 96 | 1003.9 |
| 20260506230325 | 57 | 148 | 1.7 | 2.6 | 0.00 | 0.02 | 0.02 | 96 | 1004.0 |
| 20260506225821 | 57 | 236 | 3.5 | 5.2 | 0.00 | 0.02 | 0.02 | 96 | 1004.0 |
| 20260506225318 | 57 | 196 | 2.6 | 3.5 | 0.00 | 0.02 | 0.02 | 96 | 1004.0 |
| 20260506224815 | 57 | 182 | 4.3 | 5.2 | 0.07 | 0.02 | 0.02 | 95 | 1004.2 |
| 20260506224312 | 57 | 114 | 2.6 | 5.2 | 0.07 | 0.02 | 0.02 | 95 | 1004.1 |
| 20260506223809 | 57 | 175 | 2.6 | 5.2 | 0.00 | 0.01 | 0.01 | 95 | 1004.3 |
| 20260506223303 | 57 | 162 | 1.7 | 2.6 | 0.00 | 0.01 | 0.01 | 95 | 1004.2 |
| 20260506222800 | 57 | 294 | 1.7 | 1.7 | 0.00 | 0.01 | 0.01 | 95 | 1004.2 |
| 20260506222256 | 58 | 169 | 1.7 | 2.6 | 0.00 | 0.01 | 0.01 | 94 | 1004.4 |
| 20260506221749 | 58 | 31 | 1.7 | 1.7 | 0.00 | 0.01 | 0.01 | 94 | 1004.3 |
| 20260506221246 | 58 | 47 | 3.5 | 3.5 | 0.00 | 0.01 | 0.01 | 94 | 1004.5 |
| 20260506220744 | 58 | 116 | 1.7 | 2.6 | 0.00 | 0.01 | 0.01 | 94 | 1004.4 |
| 20260506220238 | 58 | 185 | 4.3 | 7.0 | 0.00 | 0.01 | 0.01 | 93 | 1004.6 |
| 20260506215736 | 59 | 304 | 3.5 | 3.5 | 0.00 | 0.01 | 0.01 | 93 | 1004.7 |
| 20260506215231 | 59 | 126 | 2.6 | 3.5 | 0.00 | 0.01 | 0.01 | 93 | 1004.7 |
| 20260506214728 | 59 | 78 | 1.7 | 1.7 | 0.00 | 0.01 | 0.01 | 92 | 1004.7 |
| 20260506214225 | 59 | 137 | 3.5 | 6.1 | 0.00 | 0.01 | 0.01 | 92 | 1004.8 |
| 20260506213723 | 59 | 140 | 3.5 | 6.1 | 0.00 | 0.01 | 0.01 | 91 | 1004.8 |
| 20260506213219 | 59 | 245 | 1.7 | 2.6 | 0.00 | 0.01 | 0.01 | 91 | 1004.7 |
| 20260506212717 | 59 | 163 | 5.2 | 7.8 | 0.00 | 0.01 | 0.01 | 91 | 1004.9 |
| 20260506212212 | 59 | 29 | 1.7 | 2.6 | 0.00 | 0.01 | 0.01 | 91 | 1004.8 |
| 20260506211702 | 59 | 75 | 1.7 | 2.6 | 0.00 | 0.01 | 0.01 | 90 | 1004.9 |
| 20260506211159 | 59 | 114 | 3.5 | 5.2 | 0.00 | 0.01 | 0.01 | 90 | 1004.9 |
| 20260506210656 | 59 | 151 | 3.5 | 3.5 | 0.00 | 0.01 | 0.01 | 90 | 1005.1 |
| 20260506210153 | 59 | 227 | 2.6 | 2.6 | 0.00 | 0.01 | 0.01 | 89 | 1004.8 |
| 20260506205650 | 59 | 117 | 3.5 | 3.5 | 0.05 | 0.01 | 0.01 | 89 | 1005.1 |
| 20260506205149 | 59 | 64 | 0.9 | 1.7 | 0.05 | 0.01 | 0.01 | 88 | 1005.2 |
| 20260506204648 | 60 | 52 | 1.7 | 3.5 | 0.00 | 0.00 | 0.00 | 87 | 1005.1 |